地球静止运行环境卫星 12星 (GOES 12)

导读

GOES 12是美国于2001年7月23日发射的第三代静止轨道气象卫星,隶属于GOES系列,归美国国家海洋和大气管理局管理运行。该卫星采用三轴稳定姿态控制,搭载多通道成像仪与大气垂直探测器,可获取大气温湿廓线、云顶及地表温度等气象数据,是全球气象监测网络的重要组成部分,为北美及周边区域天气预报、气候研究提供关键观测支撑,后续被新一代GOES卫星逐步替代。

基本信息
目录编号:
26871
目录名称:
GOES 12
国际标识:
2001-031A
轨道中心:
EARTH
卫星名称:
地球静止运行环境卫星 12星
卫星全名:
地球静止运行环境卫星 12星 (GOES 12)
卫星状态:
在轨 (已飞行9090 天)
发射日期:
2001-07-23 UTC
国别 :
美国 (US)
星等 :
--
轨道信息
数据来源 国际轨道数据 AOE轨道数据
星历时间 2026-06-12T12:21:39+0800
15小时前
查看轨道信息
2026-06-12T12:00:00+0800
16小时前
查看轨道信息
半长轴 42486.513km 42486.342km
偏心率 0.00067 0.0006778
轨道倾角 12.176° 12.176°
近地点辐角 310.280° 310.297°
升交点赤经 37.305° 37.305°
平近点角 230.853° 225.474°
近地点 36079.91km 36079.407km
远地点 36136.842km 36137.003km
周期 1452.568分钟 1452.559分钟
每日圈数 0.991348 0.991354
详细信息
卫星平台:
LS-1300
平衡模式:
三轴稳定
覆盖范围:
全球
制造商(研发单位):
劳拉空间系统公司
制造商所在国:
美国
使用方式:
暂无
卫星简介
地球静止环境业务卫星是美国国家海洋和大气管理局(NOAA)与美国国家航空航天局(NASA)共同发展的民用静止轨道气象系列卫星。[1]美国第一代地球静止轨道气象卫星系列。英文缩写为GOES。该卫星已退役。
2D轨道图
3D轨道图
轨道高度分析图
轨道倾角分析图
轨道综合分析图
查看轨道综合分析图